Weather observations for the past three days for
Bay City, Bay City Municipal Airport
Imperial (Metric)
Date Time (cdt) Wind (mph) Vis. (mi.) Weather Sky Cond. Temperature (ºF) Relative Humidity Wind Chill (°F) Heat Index (°F) Pressure Precipitation (in)
Air Dwpt 6 hour altimeter (in) sea level (mb) 1 hr 3 hr 6 hr
Max. Min.
22 15:55 S 9 10.00 Fair CLR 86.5 76.1 71% 97 29.98 0.0
22 15:35 S 8 10.00 Fair CLR 86.5 77.4 74% 98 29.98 0.0
22 15:15 S 10 10.00 Fair CLR 84.6 77 78% 95 29.99 0.0
22 14:55 S 7 10.00 Fair CLR 83.1 76.1 79% 91 29.99 0.0
22 14:35 S 3 10.00 Fair CLR 82.6 75.6 79% 90 29.99 0.0
22 14:15 SW 5 10.00 Fair CLR 82.6 75.4 79% 90 30 0.0
22 13:55 SW 3 10.00 Fair CLR 82 74.1 77% 88 30.01 0.0
22 13:35 S 5 10.00 Fair CLR 81.5 73.4 77% 87 30 0.0
22 13:15 SW 3 10.00 Fair CLR 81.3 73.6 77% 87 30.02 0.0
22 12:55 SW 5 10.00 Fair CLR 81 74.3 80% 86 30.03 0.0
22 12:35 SW 3 10.00 Fair CLR 80.2 75.2 85% 85 30.03 0.0
22 12:15 SW 8 10.00 Fair CLR 79.9 75.2 86% 85 30.04 0.0
22 11:55 W 9 10.00 Partly Cloudy SCT037 SCT042 SCT050 79.9 75.2 86% 85 30.04 0.0
22 11:35 SW 7 10.00 Light Rain SCT037 79.7 75.4 87% 84 30.03 0.0
22 11:15 SW 7 10.00 Fair CLR 79.3 75.6 88% 84 30.04 0.0
22 10:55 W 7 10.00 Light Drizzle CLR 79 74.7 87% 83 30.03 0.0
22 10:35 SW 7 10.00 Fair CLR 79 74.5 86% 83 30.04 0.0
22 10:15 SW 8 10.00 Partly Cloudy SCT110 79.2 75 87% 83 30.03 0.0
22 09:55 SW 7 10.00 Partly Cloudy SCT110 79.2 74.8 87% 83 30.03 0.0
22 09:35 W 8 10.00 Light Rain SCT036 SCT049 79.9 75 85% 85 30.02 0.0
22 09:15 W 5 10.00 Partly Cloudy SCT085 80.1 75.2 85% 85 30.02 0.0
22 08:55 SW 7 10.00 Light Drizzle SCT032 SCT048 BKN060 78.6 75.4 90% 82 30.01 0.0 0.01
22 08:35 SW 8 4.00 Rain SCT030 BKN048 BKN060 78.4 73.8 86% 81 30 0.0 0.01
22 08:15 SW 9 10.00 Mostly Cloudy SCT009 SCT022 BKN029 78.1 73.9 87% 81 30.01 0.0
22 07:55 W 7 10.00 Partly Cloudy SCT011 SCT022 SCT039 77 75.9 96% 78 30 0.0
22 07:35 E 3 10.00 Fair CLR 75.6 75 98% 74 29.99 0.0
22 07:15 E 5 10.00 Partly Cloudy SCT075 74.7 73.9 98% 29.98 0.0
22 06:55 Calm 10.00 Partly Cloudy SCT075 74.5 73.8 98% 29.99 0.0
22 06:35 Calm 10.00 Fair CLR 74.5 73.8 98% 29.98 0.0
22 06:15 Calm 10.00 Fair CLR 74.3 73.6 98% 29.98 0.0
22 05:55 Calm 10.00 Fair CLR 74.3 73.6 98% 29.97 0.0
22 05:35 Calm 10.00 Fair CLR 74.3 73.6 98% 29.97 0.0
22 05:15 E 3 10.00 Fair CLR 74.3 73.6 98% 29.97 0.0
22 04:55 Calm 10.00 Partly Cloudy SCT022 74.3 73.6 98% 29.97 0.0
22 04:35 E 3 10.00 Partly Cloudy SCT022 74.3 73.6 98% 29.97 0.0
22 04:15 Calm 10.00 Fair CLR 74.5 73.8 98% 29.96 0.0
22 03:55 NE 3 10.00 Fair CLR 74.5 73.6 97% 29.96 0.0
22 03:35 Calm 10.00 Fair CLR 74.7 73.8 97% 29.96 0.0
22 03:15 Calm 10.00 Fair CLR 75 73.9 96% 73 29.96 0.0
22 02:55 N 5 10.00 Fair CLR 75.6 74.1 95% 74 29.97 0.0
22 02:35 Calm 10.00 Fair CLR 76.1 74.7 95% 76 29.97 0.0
22 02:15 Calm 10.00 Fair CLR 75.7 74.5 96% 75 29.97 0.0
22 01:55 Calm 10.00 Fair CLR 76.5 74.8 95% 77 29.98 0.0
22 01:35 Calm 10.00 Fair CLR 76.5 74.8 95% 77 29.98 0.0
22 01:15 Calm 10.00 Fair CLR 76.6 75 95% 77 29.98 0.0
22 00:55 Calm 10.00 Fair CLR 76.6 75.2 95% 77 29.98 0.0
22 00:35 S 3 10.00 Fair CLR 77 75.2 94% 78 29.98 0.0
22 00:15 S 5 10.00 Fair CLR 77.2 75.2 94% 78 29.98 0.0
21 23:55 S 6 10.00 Fair CLR 76.6 74.8 94% 77 29.98 0.0
21 23:35 S 3 10.00 Fair CLR 76.3 74.3 94% 76 29.99 0.0
21 23:15 Calm 10.00 Fair CLR 76.1 74.3 94% 76 29.99 0.0
21 22:55 E 3 10.00 Fair CLR 76.6 74.5 93% 77 30 0.0
21 22:35 Calm 10.00 Fair CLR 77 74.5 92% 78 30 0.0
21 22:15 SE 3 10.00 Fair CLR 77.2 74.7 92% 79 29.99 0.0
21 21:55 SE 3 10.00 Fair CLR 77.9 75.2 91% 80 29.98 0.0
21 21:35 Calm 10.00 Fair CLR 78.1 75.2 91% 81 29.98 0.0
21 21:15 S 5 10.00 Fair CLR 78.4 75.7 91% 82 29.97 0.0
21 20:55 SE 6 10.00 Fair CLR 79.3 76.1 90% 84 29.97 0.0
21 20:35 S 3 10.00 Fair CLR 80.2 76.1 87% 86 29.97 0.0
21 20:15 S 8 10.00 Fair CLR 81.3 76.3 85% 88 29.96 0.0
21 19:55 S 5 10.00 Fair CLR 82.2 75.7 81% 90 29.94 0.0
21 19:35 S 6 10.00 Fair CLR 82.6 75.2 78% 90 29.93 0.0
21 19:15 SE 5 10.00 Fair CLR 82.6 74.3 76% 89 29.94 0.0
21 18:55 S 6 10.00 Fair CLR 83.1 73 72% 89 29.95 0.0
21 18:35 S 8 10.00 Fair CLR 82.6 74.1 76% 89 29.96 0.0
21 17:55 S 9 10.00 Fair CLR 80.4 75.4 85% 86 29.99 0.0
21 17:35 S 14 G 21 10.00 Partly Cloudy SCT009 SCT100 79.5 74.1 84% 84 29.99 0.0
21 17:15 S 16 10.00 Mostly Cloudy SCT009 BKN080 BKN100 79.7 74.7 85% 84 30.01 0.0
21 16:55 S 13 G 17 10.00 Mostly Cloudy BKN080 80.1 75.6 86% 85 30.01 0.0
21 16:35 S 10 10.00 Fair CLR 79.9 75.6 87% 85 30 0.0
21 16:15 S 9 10.00 Fair CLR 79.5 75.4 87% 84 29.99 0.0
21 15:55 S 8 10.00 Fair CLR 78.3 74.7 89% 81 29.98 0.0
21 15:35 SE 3 10.00 Fair CLR 77.7 73.9 88% 80 29.97 0.0
21 15:15 SE 5 10.00 Fair CLR 77.7 74.1 89% 80 29.98 0.0
21 14:55 SE 5 10.00 Fair CLR 77.2 73.9 90% 79 29.99 0.0
21 14:35 SE 8 10.00 Partly Cloudy SCT040 SCT120 79 73.2 83% 82 30 0.0
21 14:15 SE 14 10.00 Partly Cloudy SCT040 SCT085 SCT120 81.5 74.3 79% 87 30.02 0.0
21 13:55 E 8 10.00 Overcast SCT042 BKN090 OVC110 82 74.3 77% 88 30.02 0.0
21 13:35 NE 8 G 18 10.00 Mostly Cloudy BKN110 82.9 75.6 78% 91 30.02 0.0
21 13:15 N 8 10.00 Partly Cloudy SCT029 SCT037 81.1 75 82% 87 30 0.0
21 12:55 N 10 10.00 Light Rain SCT029 SCT039 BKN100 81.7 73.4 76% 87 30 0.0
21 12:35 N 6 10.00 Partly Cloudy SCT060 SCT110 82.9 71.6 69% 88 30 0.0
21 12:15 N 8 G 18 10.00 Mostly Cloudy SCT025 SCT041 BKN110 83.7 74.1 73% 91 29.99 0.0
21 11:55 N 6 10.00 Partly Cloudy SCT027 SCT036 SCT047 84.4 76.1 76% 94 30.01 0.0
21 11:35 S 12 10.00 Mostly Cloudy BKN027 BKN036 BKN048 86.4 75.6 70% 96 30 0.0
21 11:15 Calm 10.00 Mostly Cloudy BKN027 BKN036 BKN095 87.6 78.1 73% 101 30 0.0
21 10:55 Calm 10.00 Mostly Cloudy SCT020 SCT025 BKN095 86.4 76.8 73% 98 30.01 0.0
21 10:35 NW 3 10.00 Partly Cloudy SCT021 SCT026 85.8 77.4 76% 97 30.01 0.0
21 10:15 W 3 10.00 Partly Cloudy SCT018 85.5 77.7 78% 97 30 0.0
21 09:55 Calm 10.00 Fair CLR 84.6 77.9 81% 96 30 0.0
21 09:35 Calm 10.00 Fair CLR 84.2 77.4 80% 95 30.01 0.0
21 09:15 Calm 10.00 Fair CLR 83.1 76.6 81% 92 30.01 0.0
21 08:55 Calm 10.00 Partly Cloudy SCT095 82.6 77 83% 91 30.01 0.0
21 08:35 Calm 10.00 Partly Cloudy SCT095 SCT120 81.7 77.4 87% 90 30.02 0.0
21 08:15 Calm 10.00 Partly Cloudy SCT021 SCT030 SCT120 79.9 77.9 94% 86 30.01 0.0
21 07:55 Calm 10.00 Partly Cloudy SCT026 78.8 77.9 97% 83 30.01 0.0
21 07:35 Calm 10.00 Fair CLR 77.2 76.5 98% 78 30 0.0
21 07:15 Calm 10.00 Fair CLR 76.5 75.7 98% 76 30 0.0
21 06:55 Calm 10.00 Fair CLR 76.1 75.2 97% 75 30 0.0
21 06:35 Calm 10.00 Fair CLR 76.1 75.4 98% 75 29.99 0.0
21 06:15 NE 3 10.00 Partly Cloudy SCT036 SCT046 SCT055 76.1 75.4 98% 75 29.99 0.0
21 05:55 Calm 10.00 Partly Cloudy SCT020 SCT026 SCT035 75.9 75.2 98% 75 29.99 0.0
21 05:35 Calm 10.00 Partly Cloudy SCT020 SCT026 76.1 75.2 97% 75 29.99 0.0
21 05:15 Calm 10.00 Fair CLR 76.1 75.2 97% 75 29.98 0.0
21 04:55 Calm 10.00 Fair CLR 76.6 75.7 97% 77 29.98 0.0
21 04:15 Calm 10.00 Fair CLR 77.2 76.1 96% 78 29.99 0.0
21 03:55 Calm 10.00 Fair CLR 77.2 76.3 97% 78 29.99 0.0
21 03:35 Calm 10.00 Fair CLR 77 76.1 97% 78 29.99 0.0
21 03:15 SE 3 7.00 Fair CLR 77 75.9 96% 78 29.99 0.0
21 02:55 Calm 10.00 Partly Cloudy SCT022 77.2 76.1 96% 78 30 0.0
21 02:35 Calm 10.00 Fair CLR 77.7 76.3 95% 80 30.01 0.0
21 02:15 Calm 10.00 Fair CLR 78.3 76.6 95% 81 30.01 0.0
21 01:55 Calm 10.00 Fair CLR 79 77 94% 83 30.01 0.0
21 01:35 Calm 10.00 Fair CLR 78.8 76.8 94% 83 30.01 0.0
21 01:15 Calm 10.00 Fair CLR 78.6 76.8 94% 82 30.02 0.0
21 00:55 S 3 10.00 Fair CLR 78.3 76.8 95% 81 30.02 0.0
21 00:35 S 5 10.00 Fair CLR 78.1 76.6 95% 81 30.02 0.0
21 00:15 SE 3 10.00 Fair CLR 78.4 76.8 95% 82 30.02 0.0
20 23:55 Calm 10.00 Fair CLR 79.3 77.2 93% 84 30.03 0.0
20 23:35 Calm 10.00 Fair CLR 79.9 77.2 92% 86 30.03 0.0
20 23:15 Calm 10.00 Fair CLR 79.9 77.2 92% 86 30.02 0.0
20 22:55 Calm 10.00 Fair CLR 79.7 77 92% 85 30.02 0.0
20 22:35 S 3 10.00 Fair CLR 79.7 77 92% 85 30.02 0.0
20 22:15 Calm 10.00 Fair CLR 80.4 77.2 90% 87 30.01 0.0
20 21:55 Calm 10.00 Fair CLR 80.4 76.8 89% 87 30 0.0
20 21:35 Calm 10.00 Fair CLR 80.2 77 90% 86 29.99 0.0
20 21:15 S 5 10.00 Fair CLR 81 76.6 87% 88 29.99 0.0
20 20:55 SE 3 10.00 Fair CLR 81.5 76.5 85% 89 29.98 0.0
20 20:35 S 6 10.00 Fair CLR 81.9 76.8 85% 90 29.97 0.0
20 20:15 S 6 10.00 Fair CLR 82 77.5 86% 91 29.97 0.0
20 19:55 S 5 10.00 Fair CLR 82.8 77.4 84% 92 29.98 0.0
20 19:35 Calm 10.00 Fair CLR 82.8 78.1 86% 93 29.98 0.0
20 19:15 SE 5 10.00 Fair CLR 83.5 78.3 84% 94 29.97 0.0
20 18:55 SE 7 10.00 Partly Cloudy SCT025 SCT030 SCT035 83.8 78.8 85% 95 29.98 0.0 0.12
20 18:35 SE 9 4.00 Light Rain SCT033 BKN070 OVC085 83.5 79.2 87% 95 29.98 0.0 0.12
20 18:15 S 10 2.00 Light Rain SCT029 BKN050 OVC095 85.3 78.3 80% 97 29.99 0.0 0.08
20 17:55 SE 12 G 17 10.00 Partly Cloudy SCT095 88.5 77.7 70% 102 29.98 0.0
20 17:35 SE 13 G 17 10.00 Fair CLR 88.7 78.1 71% 103 29.98 0.0
20 17:15 SE 9 10.00 Fair CLR 88 77 70% 100 29.99 0.0
20 16:55 E 14 10.00 Partly Cloudy SCT100 89.8 75.9 64% 101 30 0.0
20 16:35 SE 3 10.00 Partly Cloudy SCT100 91 73.8 57% 100 30 0.0
20 16:15 NE 3 10.00 Partly Cloudy SCT110 90.5 73.2 57% 99 30 0.0
20 15:55 Calm 10.00 Fair CLR 90.7 73 56% 99 30 0.0
20 15:35 Calm 10.00 Partly Cloudy SCT039 SCT047 SCT060 90.1 73 57% 98 30 0.0
20 15:15 E 5 10.00 Partly Cloudy SCT039 90.3 73.9 59% 100 30.01 0.0
20 14:55 W 3 10.00 Fair CLR 89.8 73.8 59% 99 30.01 0.0
20 14:15 NW 3 10.00 Partly Cloudy SCT031 89.1 73.9 61% 98 30.02 0.0
20 13:55 NW 5 10.00 Partly Cloudy SCT031 88.5 74.8 64% 98 30.02 0.0
20 13:35 Calm 10.00 Fair CLR 87.8 75.4 67% 98 30.03 0.0
20 13:15 Calm 10.00 Fair CLR 86.9 76.6 72% 98 30.03 0.0
20 12:55 NW 6 10.00 Fair CLR 85.8 77.5 76% 97 30.03 0.0
20 12:35 W 5 10.00 Partly Cloudy SCT085 84.9 77.4 78% 96 30.04 0.0
20 12:15 W 5 10.00 Mostly Cloudy BKN085 84.6 76.8 78% 95 30.05 0.0
20 11:55 NW 5 10.00 Partly Cloudy SCT095 84.2 76.8 79% 94 30.04 0.0
20 11:35 Calm 10.00 Partly Cloudy SCT095 83.7 77.5 82% 94 30.05 0.0
20 11:15 SW 3 10.00 Partly Cloudy SCT022 SCT028 SCT032 83.1 77.4 83% 93 30.05 0.0
20 10:55 SW 3 10.00 Partly Cloudy SCT019 SCT100 82.6 77.2 84% 91 30.04 0.0
20 10:35 Calm 10.00 Mostly Cloudy SCT019 BKN026 BKN110 82.9 77 82% 92 30.04 0.0
20 10:15 Calm 10.00 Partly Cloudy SCT026 SCT032 SCT041 82.6 76.6 82% 91 30.05 0.0
20 09:55 Calm 10.00 Partly Cloudy SCT015 SCT023 SCT110 81.7 75.4 81% 88 30.05 0.0
20 09:35 Calm 10.00 Partly Cloudy SCT015 SCT029 SCT038 81.7 75.7 82% 89 30.05 0.0
20 09:15 Calm 10.00 Partly Cloudy SCT029 SCT038 SCT048 80.6 75.4 84% 86 30.05 0.0
20 08:55 N 6 10.00 Partly Cloudy SCT029 SCT035 SCT048 79.2 74.5 86% 83 30.05 0.0
20 08:35 NE 5 10.00 Partly Cloudy SCT035 77.2 74.8 93% 78 30.05 0.0
20 08:15 NE 6 10.00 Fair CLR 75.6 74.7 97% 74 30.04 0.0
20 07:55 NE 6 10.00 Fair CLR 75.2 74.1 96% 73 30.03 0.0
20 07:35 N 3 7.00 Fair CLR 75 73.8 96% 73 30.02 0.0
20 07:15 Calm 10.00 Fair CLR 75.2 73.6 95% 74 30 0.0
20 06:55 Calm 10.00 Partly Cloudy SCT021 SCT031 75.2 73.8 95% 74 30 0.0
20 06:35 W 3 10.00 Partly Cloudy SCT021 75.4 73.9 95% 74 30.01 0.0
20 06:15 N 5 10.00 Mostly Cloudy SCT006 BKN021 BKN036 75.9 74.3 95% 75 30.02 0.0
20 05:55 NE 5 10.00 Mostly Cloudy SCT023 SCT042 BKN080 76.1 74.3 94% 76 30.02 0.0
20 05:35 NE 6 10.00 Overcast BKN021 BKN028 OVC045 76.1 73.9 93% 76 30.02 0.0
20 05:15 NE 6 10.00 Overcast OVC021 75.6 74.1 95% 74 30.01 0.0
20 04:35 Calm 10.00 Partly Cloudy SCT023 76.1 75.2 97% 75 29.99 0.0
20 04:15 N 3 10.00 Fair CLR 76.3 75.2 96% 76 30 0.0
20 03:55 E 3 7.00 Fair CLR 77 75.6 95% 78 29.99 0.0
20 03:35 Calm 10.00 Fair CLR 77.7 76.1 95% 80 29.99 0.0
20 03:15 SW 3 10.00 Fair CLR 78.1 76.3 94% 81 29.99 0.0
20 02:55 Calm 10.00 Partly Cloudy SCT024 SCT050 78.3 76.5 94% 81 30 0.0
20 02:35 Calm 10.00 Overcast SCT024 OVC050 78.1 76.6 95% 81 30 0.0
20 02:15 Calm 10.00 Overcast OVC047 77.9 76.6 96% 80 30 0.0
20 01:55 Calm 10.00 Mostly Cloudy BKN043 77.4 76.1 96% 79 30 0.0
20 01:35 N 3 10.00 Fair CLR 77.7 76.1 95% 80 30 0.0
20 01:15 Calm 10.00 Fair CLR 79 76.5 92% 83 30 0.0
20 00:55 Calm 10.00 Fair CLR 79.3 76.6 91% 84 30 0.0
20 00:35 Calm 10.00 Fair CLR 79.2 76.8 93% 84 30.01 0.0
20 00:15 Calm 10.00 Fair CLR 79.2 76.8 93% 84 30 0.0
19 23:55 Calm 10.00 Partly Cloudy SCT037 78.6 76.6 94% 82 30 0.0
19 23:35 Calm 10.00 Partly Cloudy SCT037 79 76.6 93% 83 30 0.0
19 23:15 Calm 10.00 Fair CLR 79.5 77 92% 85 30 0.0
19 22:55 Calm 10.00 Partly Cloudy SCT036 SCT043 79.7 76.8 91% 85 29.99 0.0
19 22:35 SE 3 10.00 Partly Cloudy SCT043 79.9 77 91% 85 29.99 0.0
19 22:15 Calm 10.00 Fair CLR 80.1 77 90% 86 29.98 0.0
19 21:55 S 3 10.00 Fair CLR 81.3 77.4 88% 89 29.97 0.0
19 21:35 Calm 10.00 Fair CLR 81.7 77.2 86% 90 29.97 0.0
19 21:15 Calm 10.00 Fair CLR 81.7 77.4 87% 90 29.96 0.0
19 20:55 S 3 10.00 Fair CLR 82.6 77.4 84% 92 29.96 0.0
19 20:35 S 3 10.00 Fair CLR 83.7 77.4 81% 94 29.96 0.0
19 20:15 S 3 10.00 Fair CLR 84.9 77.2 78% 96 29.95 0.0
19 19:55 S 3 10.00 Fair CLR 85.8 76.8 75% 97 29.95 0.0
19 19:15 S 3 10.00 Fair CLR 86.4 76.8 73% 98 29.95 0.0
19 18:55 Calm 10.00 Fair CLR 87.3 75.9 69% 98 29.95 0.0
19 18:35 Calm 7.00 Fair CLR 87.6 75.6 68% 98 29.95 0.0
19 18:15 Calm 10.00 Partly Cloudy SCT029 86.9 76.3 71% 98 29.95 0.0
19 17:55 Calm 10.00 Partly Cloudy SCT029 87.1 76.8 72% 99 29.95 0.0
19 17:35 SE 3 10.00 Partly Cloudy SCT031 87.6 76.5 70% 99 29.95 0.0
19 17:15 Calm 10.00 Fair CLR 87.1 76.1 70% 98 29.95 0.0
19 16:55 Calm 10.00 Fair CLR 86.7 75.7 70% 97 29.96 0.0
19 16:35 SE 3 10.00 Fair CLR 86 75.4 71% 95 29.96 0.0
Date Time (cdt) Wind (mph) Vis. (mi.) Weather Sky Cond. Air Dwpt Max. Min. Relative Humidity Wind Chill (°F) Heat Index (°F) altimeter (in) sea level (mb) 1 hr 3 hr 6 hr
6 hour
Temperature (ºF) Pressure Precipitation (in)